Location: Newark
(33.2404°N, 35.6778°E)
Time: 20:59:08
(UTC+00:00)

Hubble Space Telescope - Pass Details

Date: 30 January 2020
Orbit: 536 x 540 km, 28.5° (Epoch: 26 February)

Event Time Altitude Azimuth Distance (km) Brightness Sun altitude
Exits shadow 03:58:40 - 240° (WSW) 2,592 3.8 -8.0°
Reaches altitude 10° 04:00:54 10° 230° (SW) 1,775 3.1 -7.6°
Maximum altitude 04:04:33 31° 167° (SSE) 952 2.4 -6.8°
Drops below altitude 10° 04:08:11 10° 105° (ESE) 1,779 5.3 -6.1°
Sets 04:10:37 0° 95° (E) 2,671 6.4 -5.6°
